STARLINK-32343, 61712

Orbit data source: Space-Track

STARLINK-32343, 61712 is a payload satellite owned by SpaceX/Seattle (US) in LEO that was launched on Wed, 30 Oct 2024 UTC via an FALCON 9 launch vehicle from the Air Force Eastern Test Range (AFETR). Payload-class satellites include a variety of spacecraft equipped with specific instruments for various scientific and technological missions. These include communications satellites like Starlink; space stations such as the ISS; scientific satellites like the Hubble; Earth observation satellites from companies like Planet Labs, Umbra, and HawkEye 360; GPS; miniature CubeSats for education and research; and military/defense satellites.

Loading next visibility...
Identifier
61712, 2024-196F
Orbit
LEO
Country
Flag of USUS
Related business
Manufacturer
SpaceX/Seattle
Mission
Operational Commercial Communications
Bus & Motor
STARLINK V2M, Unknown motor
Mass
730 kg wet, ~700 kg dry
Launch date (UTC)
2024-10-30 (2 years ago)
Launch vehicle
FALCON 9
Launch site
Air Force Eastern Test Range (AFETR)
Object type
Payload
Rocket body
Debris
Shape & HBR
Box + 2 Pan, 17.7 m
Radar Cross Section
33.884 m², Large (>1 m²)

Expand to show TLE details & history
Last TLE update: 17 hours ago

TLE from 17 hours ago
0 STARLINK-32343
1 61712U 24196F   26257.54401500 -.00001131  00000-0 -22355-4 0  9999
2 61712  53.1598 301.8194 0001111  63.2447 296.8669 15.34392156106109
Epoch: 2026-09-14T13:03Z
TLE epoch observation values (Epoch: 2026-09-14T13:03:22.896Z)
Latitude
-0.00001°
Longitude
112.4512°
Altitude
463.284 km
Speed
7.636 km/s
True Right ascension
20h 07m 16s
True Declination
0° 00' 00"
Sunlit
Object was in full shadow at epoch
Visualization orbit readout
Latitude
Unknown
Longitude
Unknown
Altitude
Unknown
Speed
Unknown
Apparent Right ascension
Unknown
Apparent Declination
Unknown
Sunlit
N/A
Visualization observer readout
Local Sidereal Time
22:35:27
Azimuth
Unknown
Elevation
Unknown
Doppler factor
Unknown
Orbital elements
Apogee altitude
463.744 km
Perigee altitude
462.223 km
Semi-major axis
6,841.12 km
Eccentricity
0.00011
Inclination
53.1598°
RAAN
301.8194°
Arg. of periapsis
63.2447°
True anomaly
296.85554°
Mean anomaly
296.8669°
Eccentric anomaly
296.86122°
Mean motion
3.83577 °/min
Orbital period
93.85 mins
BSTAR
-0.000022355
Loading maneuver chart data...
Computing Atmospheric mass density...
Loading historical data...
Loading historical data...
Loading historical data...
Loading historical data...
Loading historical data...
Loading historical data...
Loading historical data...

Documentation

Showing up to 5 results
|